DELTA 1 DEB

Satellite information

Favourite Embed

Satellite Type and Status

DEBRISIN ORBIT

Key statistics

Satellite DELTA 1 DEB at a glance.

Uptime

17353

Days in orbit

Revolutions

≈ 13.9

Per day

Orbit

SSO

Sun Synchronous Orbit

Inclination

98.9

Latest

Satellite identification and parameters

Extended collection of information and parameters for DELTA 1 DEB.

Object identification

Identified? True

Debris? True

Object name: DELTA 1 DEB

International designator: 1978-026AJ

Object number (NORAD): 12193

Object ID (CCSDS): 12193

Country: UNITED STATES OF AMERICA (US)

Current information (Y/N): Y

RCS size: SMALL

Orbital parameters

Period: 103.901 minutes

Inclination: 98.8608 deg

SMA: 7321.046 km

Apoapsis: 1119.421 km

Periapsis: 766.402 km

RAAN: 92.34 deg

Eccentricy: 0.02410987

Argument of periapsis: 249.5095 deg

Mean anomaly: 108.0034 deg

Mean motion: 13.85935538 rev/day

Mean motion (dot): 0.00002089 rev/day2

B* drag term: 0.0014769975 1/REarth

Two-line elements (TLE)

Creation date: Sept. 6, 2025, 10:23 a.m.

Reference frame: TEME

Reference center: EARTH

Epoch: Sept. 6, 2025, 2:46 a.m. UTC

TLE line 0: 0 DELTA 1 DEB

TLE line 1: 1 12193U 78026AJ 25249.11537907 .00002089 00000-0 14770-2 0 9994

TLE line 2: 2 12193 98.8608 92.3400 0241099 249.5095 108.0034 13.85935538211701

Live tracking on map

Real-time ground track for satellite DELTA 1 DEB.

In-orbit conjunctions

A list of the most updated potential collisions computed for object DELTA 1 DEB.

Target Orbit TCA Probability of collision Miss distance Type
FENGYUN 1C DEB SSO 2025-04-16 22:09:38 0.0001384215 60.0 (m) DEBRIS
SL-16 DEB LEO 2025-01-03 11:18:00 0.0006613238 55.0 (m) DEBRIS
SL-3 R/B LEO 2024-07-20 11:16:03 0.0002191471 552.0 (m) ROCKET BODY

Associated space launch

Earth observation satellite

DELTA 1 DEB was lifted into orbit during the mission ‘Delta 2910 | Landsat 3’, on board a Delta 2910 space rocket.

The launch took place on March 5, 1978, 5:54 p.m. from Space Launch Complex 2W.

For more information about the launch, click the button.

Launch to space Delta 2910 | Landsat 3
Delta 2910 | Landsat 3

Agency: N/A

Status: Launch Successful

Launch date: March 5, 1978, 5:54 p.m. UTC

Rocket: Delta 2910

Launch pad: Space Launch Complex 2W

Location: Vandenberg SFB, CA, USA

...

Latest news about this satellite

There are no fresh news available about this satellite. Check back as we update our databases every day.


Newsletter sign-up

Weekly statistics, charts and insights to help you stay on top of the space industry.